[[{"header":{"parameterUnit":"m.s-1","parameterCategory":1,"la1":30.2992,"la2":30.254,"lo1":-89.0895,"lo2":-89.0443,"dy":0.0025,"dx":0.0025,"nx":19,"ny":19,"refTime":"2026-04-20T21:00:00:Z","depth":0,"parameterNumber":2,"parameterNumberName":"U-component_of_WINDS"},"data":[0,0,0,-0.6108,-0.6109,-0.6151,-0.6152,-0.6207,-0.6207,0,0,0,0,0,0,0,0,0,0,0,-0.6094,-0.6094,-0.6108,-0.6109,-0.6151,-0.6152,-0.6207,-0.6207,0,0,0,0,0,0,0,0,0,0,0,-0.6094,-0.6094,-0.6094,-0.6109,-0.6151,-0.6152,-0.6206,-0.6175,0,0,0,0,0,0,0,0,0,0,-0.6133,-0.6118,-0.6094,-0.6094,-0.6109,-0.6151,-0.6152,-0.6173,-0.6177,-0.6187,0,-0.6194,0,-0.6201,-0.6211,-0.6211,0,0,0,-0.6111,-0.6115,-0.6128,-0.6094,-0.611,-0.6151,-0.6133,-0.6175,-0.6179,-0.6192,-0.6195,-0.6197,-0.6202,-0.6211,-0.6211,-0.6261,-0.6261,0,0,-0.6108,-0.6101,-0.6125,-0.613,-0.6121,-0.6131,-0.6134,-0.6177,-0.6181,-0.6195,-0.6198,-0.6203,-0.6211,-0.6212,-0.6261,-0.6261,0,0,0,-0.61,-0.6099,-0.6111,-0.6128,-0.6135,-0.6133,-0.6136,-0.6179,-0.6184,-0.6199,-0.6204,-0.6212,-0.6212,-0.626,-0.6261,-0.6261,0,0,0,-0.6099,-0.6095,-0.611,-0.6106,-0.6135,-0.6157,-0.6136,-0.6181,-0.6186,-0.6203,-0.6212,-0.6213,-0.626,-0.6261,-0.626,-0.6263,0,0,0,-0.6092,-0.6094,-0.6099,-0.6105,-0.6123,-0.6157,-0.6164,-0.6182,-0.6189,-0.6211,-0.6213,-0.626,-0.626,-0.626,-0.6262,-0.6275,0,0,0,-0.6082,-0.6099,-0.6099,-0.612,-0.6123,-0.6156,-0.6164,-0.6189,-0.6208,-0.6212,-0.626,-0.6261,-0.626,-0.6262,-0.6274,-0.6284,-0.6287,0,0,-0.6099,-0.6101,-0.6114,-0.6115,-0.6146,-0.615,-0.6182,-0.6207,-0.6217,-0.6246,-0.6247,-0.6261,-0.6262,-0.6274,-0.6305,-0.6307,0,0,0,-0.6117,-0.6126,-0.6136,-0.6153,-0.6171,-0.6188,-0.6209,-0.6218,-0.6243,-0.6229,-0.6268,-0.6269,-0.6277,-0.6282,-0.6284,-0.6292,-0.6262,-0.6262,-0.6262,-0.6131,-0.6142,-0.6165,-0.618,-0.6197,-0.6218,-0.6233,-0.625,-0.6256,-0.6265,-0.6274,-0.6291,-0.6297,-0.6298,-0.6306,-0.6279,-0.6279,-0.6279,-0.6279,-0.6159,-0.6175,-0.6182,-0.6206,-0.6218,-0.624,-0.6261,-0.6265,-0.6288,-0.6285,-0.6292,-0.6288,-0.6301,-0.6308,-0.6279,-0.6279,-0.6279,-0.6279,-0.6279,-0.6171,-0.618,-0.619,-0.6216,-0.6236,-0.6251,-0.6273,-0.6283,-0.6293,-0.63,-0.6312,-0.6312,-0.6315,-0.6304,-0.6304,-0.6304,-0.6304,-0.6304,-0.6304,-0.618,-0.6191,-0.6208,-0.6229,-0.6241,-0.6259,-0.6281,-0.6294,-0.6312,-0.6318,-0.6318,-0.6325,-0.6299,-0.6293,-0.6305,-0.6305,-0.6305,-0.6305,-0.6305,-0.6207,-0.6202,-0.6227,-0.624,-0.6266,-0.6286,-0.6297,-0.6324,-0.6336,-0.6347,-0.6352,-0.6331,-0.6334,-0.6332,-0.6328,-0.6348,-0.6348,-0.6348,-0.6348,-0.6218,-0.622,-0.6248,-0.6268,-0.6288,-0.6301,-0.6332,-0.6349,-0.6367,-0.6376,-0.6374,-0.6369,-0.6367,-0.6371,-0.6369,-0.6365,-0.6394,-0.6394,-0.6394,-0.6236,-0.624,-0.6263,-0.6279,-0.63,-0.6319,-0.6349,-0.6373,-0.6392,-0.6397,-0.6384,-0.6382,-0.6373,-0.6369,-0.6374,-0.6371,-0.6363,0,0]},{"header":{"parameterUnit":"m.s-1","parameterCategory":1,"la1":30.2992,"la2":30.254,"lo1":-89.0895,"lo2":-89.0443,"dy":0.0025,"dx":0.0025,"nx":19,"ny":19,"refTime":"2026-04-20T21:00:00:Z","depth":0,"parameterNumber":3,"parameterNumberName":"V-component_of_WINDS"},"data":[0,0,0,1.1562,1.156,1.1431,1.1431,1.1279,1.1278,0,0,0,0,0,0,0,0,0,0,0,1.1611,1.161,1.1563,1.156,1.1431,1.143,1.1279,1.1278,0,0,0,0,0,0,0,0,0,0,0,1.1611,1.1611,1.161,1.1559,1.1431,1.143,1.1279,1.1371,0,0,0,0,0,0,0,0,0,0,1.1494,1.1549,1.1611,1.161,1.1559,1.1431,1.143,1.1375,1.1365,1.1344,0,1.1329,0,1.1302,1.1268,1.1268,0,0,0,1.1551,1.1558,1.1514,1.161,1.1558,1.1432,1.1487,1.137,1.1358,1.1331,1.1327,1.1321,1.1299,1.1268,1.1267,1.1179,1.1179,0,0,1.1558,1.1592,1.1522,1.1507,1.1531,1.1491,1.1483,1.1363,1.136,1.1326,1.1317,1.1297,1.1267,1.1266,1.1178,1.1179,0,0,0,1.1584,1.1598,1.1557,1.1514,1.149,1.1487,1.1478,1.1365,1.1349,1.1315,1.1295,1.1266,1.1264,1.1178,1.1178,1.1213,0,0,0,1.1588,1.1613,1.156,1.158,1.1493,1.1426,1.1484,1.1357,1.1343,1.1296,1.1266,1.1263,1.1178,1.1178,1.1212,1.1223,0,0,0,1.1616,1.1616,1.1602,1.1582,1.1529,1.1428,1.1404,1.1353,1.1331,1.1268,1.1263,1.1178,1.1178,1.1211,1.1221,1.121,0,0,0,1.1654,1.1632,1.1603,1.157,1.153,1.1452,1.1405,1.1344,1.1294,1.1265,1.1178,1.1178,1.1211,1.122,1.121,1.1207,1.121,0,0,1.1645,1.1632,1.161,1.158,1.1517,1.1468,1.1408,1.1328,1.1289,1.1217,1.1214,1.1213,1.1221,1.121,1.1213,1.1216,0,0,0,1.1618,1.1603,1.1579,1.1536,1.1477,1.1427,1.1354,1.1325,1.1263,1.126,1.1205,1.1209,1.1201,1.1198,1.12,1.1191,1.1179,1.1179,1.1179,1.1653,1.1608,1.1569,1.1509,1.1467,1.1394,1.1355,1.1303,1.1266,1.1255,1.1232,1.124,1.1238,1.1239,1.123,1.1228,1.1228,1.1228,1.1228,1.1635,1.1606,1.1563,1.1509,1.1461,1.1414,1.1343,1.132,1.1268,1.1252,1.1243,1.1229,1.1243,1.1233,1.123,1.123,1.123,1.1229,1.1229,1.1652,1.163,1.1598,1.1533,1.1487,1.1426,1.138,1.1337,1.1296,1.1287,1.1259,1.1258,1.1251,1.1277,1.1277,1.1277,1.1277,1.1277,1.1277,1.1682,1.1644,1.1612,1.1551,1.1519,1.1471,1.1399,1.1365,1.1316,1.1288,1.1288,1.1253,1.1254,1.1255,1.1277,1.1277,1.1277,1.1277,1.1277,1.1679,1.1673,1.1624,1.1592,1.1518,1.1476,1.1423,1.1358,1.1324,1.1303,1.1271,1.1279,1.1261,1.1259,1.1259,1.1281,1.1281,1.1281,1.1281,1.1692,1.1681,1.1622,1.1574,1.1522,1.1471,1.1415,1.136,1.1301,1.1277,1.1268,1.1265,1.1265,1.1247,1.1245,1.1245,1.1262,1.1262,1.1262,1.1688,1.167,1.1632,1.1578,1.1517,1.1465,1.1412,1.1357,1.1289,1.126,1.1257,1.1258,1.1253,1.1254,1.1223,1.1221,1.122,0,0]}]]